^^
Datos históricos de la estación: Murcia-Puente Tocinos
Diario Informe para Julio 14, 2019 Unidades:  Métrico    Inglés   Ambas
Diario Semanal Mensual Anual Configurable
  Máximo: Mínimo: Media:
Temperatura: 37.1 °C 24.4 °C 29.4 °C
Punto de rocio: 22.0 °C 10.2 °C 17.3 °C
Humedad: 81% 22% 54%
Velocidad viento: 22.5km/h 3.2km/h 11.1km/h
Racha viento: 41.8km/h - -
Viento- - South
Presión: 1010.4 hPa 1006.3 hPa -
Precipitación: 0.0 mm    
Historical Graphs
 
 
Tabla de datos para Julio 14, 2019
Hora Temperatura Punto de rocio Presión Viento Velocidad viento Racha viento Humedad Intensidad lluvia(por hora) Nubes
00:04 25.8 °C 21.4 °C 1010.4 hPa NE 8.7 km/h 13.0 km/h 77% 0.0 mm CLR
00:09 25.8 °C 21.4 °C 1010.4 hPa ENE 9.5 km/h 10.3 km/h 77% 0.0 mm CLR
00:14 25.8 °C 21.4 °C 1010.4 hPa NNE 9.5 km/h 11.1 km/h 77% 0.0 mm CLR
00:19 25.8 °C 21.4 °C 1010.4 hPa NNE 6.9 km/h 11.1 km/h 77% 0.0 mm CLR
00:24 25.8 °C 21.4 °C 1010.4 hPa East 6.9 km/h 11.1 km/h 77% 0.0 mm CLR
00:29 25.8 °C 21.7 °C 1010.4 hPa NE 8.4 km/h 9.3 km/h 78% 0.0 mm CLR
00:34 25.7 °C 21.6 °C 1010.3 hPa NE 8.4 km/h 7.4 km/h 78% 0.0 mm CLR
00:39 25.7 °C 21.6 °C 1010.3 hPa NE 6.9 km/h 9.3 km/h 78% 0.0 mm CLR
00:44 25.7 °C 21.6 °C 1010.3 hPa NE 6.9 km/h 11.1 km/h 78% 0.0 mm CLR
00:49 25.7 °C 21.6 °C 1010.3 hPa NNW 6.9 km/h 9.3 km/h 78% 0.0 mm CLR
00:54 25.6 °C 21.5 °C 1010.3 hPa NE 6.9 km/h 9.3 km/h 78% 0.0 mm CLR
00:59 25.6 °C 21.7 °C 1010.3 hPa NNE 5.8 km/h 7.4 km/h 79% 0.0 mm CLR
01:04 25.6 °C 21.7 °C 1010.3 hPa NNE 5.8 km/h 7.4 km/h 79% 0.0 mm CLR
01:09 25.5 °C 21.6 °C 1010.3 hPa North 5.8 km/h 7.4 km/h 79% 0.0 mm CLR
01:14 25.5 °C 21.6 °C 1010.3 hPa ENE 5.8 km/h 9.3 km/h 79% 0.0 mm CLR
01:19 25.4 °C 21.5 °C 1010.3 hPa NE 5.8 km/h 7.4 km/h 79% 0.0 mm CLR
01:24 25.4 °C 21.7 °C 1010.3 hPa NE 5.8 km/h 7.4 km/h 80% 0.0 mm CLR
01:29 25.4 °C 21.7 °C 1010.3 hPa ENE 5.0 km/h 7.4 km/h 80% 0.0 mm CLR
01:34 25.4 °C 21.7 °C 1009.9 hPa NE 5.0 km/h 7.4 km/h 80% 0.0 mm CLR
01:39 25.4 °C 21.7 °C 1009.9 hPa NE 5.0 km/h 8.7 km/h 80% 0.0 mm CLR
01:44 25.4 °C 21.7 °C 1009.9 hPa ENE 5.0 km/h 5.6 km/h 80% 0.0 mm CLR
01:49 25.4 °C 21.7 °C 1009.6 hPa NNE 4.7 km/h 9.3 km/h 80% 0.0 mm CLR
01:54 25.4 °C 21.7 °C 1009.6 hPa NNE 4.7 km/h 7.4 km/h 80% 0.0 mm CLR
01:59 25.4 °C 21.7 °C 1009.6 hPa NE 5.0 km/h 5.6 km/h 80% 0.0 mm CLR
02:04 25.4 °C 21.7 °C 1009.6 hPa WNW 5.0 km/h 3.9 km/h 80% 0.0 mm CLR
02:09 25.4 °C 21.7 °C 1009.6 hPa NW 4.7 km/h 7.4 km/h 80% 0.0 mm CLR
02:14 25.4 °C 21.7 °C 1009.6 hPa NW 4.7 km/h 7.4 km/h 80% 0.0 mm CLR
02:19 25.3 °C 21.6 °C 1009.3 hPa NW 4.7 km/h 7.4 km/h 80% 0.0 mm CLR
02:24 25.3 °C 21.6 °C 1009.3 hPa WNW 4.7 km/h 5.6 km/h 80% 0.0 mm CLR
02:29 25.4 °C 21.7 °C 1009.3 hPa WNW 3.9 km/h 5.6 km/h 80% 0.0 mm CLR
02:34 25.4 °C 21.9 °C 1009.4 hPa West 3.9 km/h 7.4 km/h 81% 0.0 mm CLR
02:39 25.4 °C 21.9 °C 1009.4 hPa West 4.7 km/h 5.6 km/h 81% 0.0 mm CLR
02:44 25.4 °C 21.9 °C 1009.4 hPa West 4.7 km/h 7.4 km/h 81% 0.0 mm CLR
02:49 25.4 °C 21.9 °C 1009.3 hPa WSW 3.9 km/h 3.9 km/h 81% 0.0 mm CLR
02:54 25.4 °C 21.9 °C 1009.3 hPa West 3.9 km/h 7.6 km/h 81% 0.0 mm CLR
02:59 25.3 °C 21.8 °C 1009.3 hPa West 4.7 km/h 7.6 km/h 81% 0.0 mm CLR
03:04 25.3 °C 21.8 °C 1009.0 hPa West 4.7 km/h 7.4 km/h 81% 0.0 mm CLR
03:09 25.4 °C 21.9 °C 1009.0 hPa West 4.7 km/h 7.4 km/h 81% 0.0 mm CLR
03:14 25.4 °C 21.9 °C 1009.0 hPa West 4.7 km/h 5.6 km/h 81% 0.0 mm CLR
03:19 25.3 °C 21.8 °C 1008.9 hPa West 3.9 km/h 7.4 km/h 81% 0.0 mm CLR
03:24 25.4 °C 21.9 °C 1008.9 hPa WSW 3.9 km/h 7.4 km/h 81% 0.0 mm CLR
03:29 25.4 °C 21.9 °C 1008.9 hPa West 3.2 km/h 7.4 km/h 81% 0.0 mm CLR
03:34 25.4 °C 21.9 °C 1008.8 hPa West 3.2 km/h 9.3 km/h 81% 0.0 mm CLR
03:39 25.5 °C 22.0 °C 1008.8 hPa WSW 5.8 km/h 8.4 km/h 81% 0.0 mm CLR
03:44 25.5 °C 22.0 °C 1008.8 hPa WSW 5.8 km/h 9.3 km/h 81% 0.0 mm CLR
03:49 25.6 °C 21.9 °C 1008.7 hPa WSW 6.4 km/h 11.1 km/h 80% 0.0 mm CLR
03:54 25.5 °C 21.8 °C 1008.7 hPa West 6.4 km/h 11.1 km/h 80% 0.0 mm CLR
03:59 25.4 °C 21.7 °C 1008.7 hPa WSW 6.9 km/h 8.7 km/h 80% 0.0 mm CLR
04:04 25.4 °C 21.7 °C 1008.7 hPa WSW 6.9 km/h 11.1 km/h 80% 0.0 mm CLR
04:09 25.4 °C 21.9 °C 1008.7 hPa WSW 6.9 km/h 13.0 km/h 81% 0.0 mm CLR
04:14 25.4 °C 21.7 °C 1008.7 hPa SW 6.9 km/h 9.3 km/h 80% 0.0 mm CLR
04:19 25.3 °C 21.8 °C 1008.7 hPa WSW 6.9 km/h 11.1 km/h 81% 0.0 mm CLR
04:24 25.3 °C 21.6 °C 1008.7 hPa WSW 6.9 km/h 11.1 km/h 80% 0.0 mm CLR
04:29 25.3 °C 21.6 °C 1008.7 hPa WSW 7.6 km/h 7.4 km/h 80% 0.0 mm CLR
04:34 25.3 °C 21.6 °C 1008.6 hPa SSW 7.6 km/h 10.0 km/h 80% 0.0 mm CLR
04:39 25.3 °C 21.6 °C 1008.6 hPa WSW 6.9 km/h 11.1 km/h 80% 0.0 mm CLR
04:44 25.2 °C 21.5 °C 1008.6 hPa WSW 6.9 km/h 9.3 km/h 80% 0.0 mm CLR
04:49 25.2 °C 21.5 °C 1008.4 hPa West 7.6 km/h 9.3 km/h 80% 0.0 mm CLR
04:54 25.1 °C 21.4 °C 1008.4 hPa SW 7.6 km/h 11.1 km/h 80% 0.0 mm CLR
04:59 25.1 °C 21.4 °C 1008.4 hPa WSW 8.4 km/h 9.3 km/h 80% 0.0 mm CLR
05:04 25.1 °C 21.4 °C 1008.5 hPa SW 8.4 km/h 10.3 km/h 80% 0.0 mm CLR
05:09 25.0 °C 21.3 °C 1008.5 hPa SW 7.6 km/h 14.8 km/h 80% 0.0 mm CLR
05:14 25.0 °C 21.3 °C 1008.5 hPa WSW 7.6 km/h 11.1 km/h 80% 0.0 mm CLR
05:19 24.9 °C 21.2 °C 1008.5 hPa SW 8.7 km/h 13.0 km/h 80% 0.0 mm CLR
05:24 24.9 °C 21.2 °C 1008.5 hPa SW 8.7 km/h 11.1 km/h 80% 0.0 mm CLR
05:29 24.8 °C 21.1 °C 1008.5 hPa SW 7.6 km/h 11.1 km/h 80% 0.0 mm CLR
05:34 24.8 °C 21.1 °C 1008.4 hPa WSW 7.6 km/h 11.1 km/h 80% 0.0 mm CLR
05:39 24.8 °C 21.1 °C 1008.4 hPa WSW 7.6 km/h 7.4 km/h 80% 0.0 mm CLR
05:44 24.8 °C 21.1 °C 1008.4 hPa SW 7.6 km/h 11.1 km/h 80% 0.0 mm CLR
05:49 24.8 °C 21.1 °C 1008.4 hPa SSW 6.4 km/h 7.4 km/h 80% 0.0 mm CLR
05:54 24.7 °C 20.8 °C 1008.4 hPa SSW 6.4 km/h 16.7 km/h 79% 0.0 mm CLR
05:59 24.7 °C 21.0 °C 1008.4 hPa SSW 8.4 km/h 14.8 km/h 80% 0.0 mm CLR
06:04 24.7 °C 21.0 °C 1008.4 hPa SSW 8.4 km/h 10.3 km/h 80% 0.0 mm CLR
06:09 24.7 °C 21.0 °C 1008.4 hPa SSW 8.4 km/h 11.1 km/h 80% 0.0 mm CLR
06:14 24.7 °C 21.0 °C 1008.4 hPa SSW 8.4 km/h 13.0 km/h 80% 0.0 mm CLR
06:19 24.7 °C 21.0 °C 1008.3 hPa SSW 9.5 km/h 14.8 km/h 80% 0.0 mm CLR
06:24 24.7 °C 21.0 °C 1008.3 hPa SW 9.5 km/h 14.8 km/h 80% 0.0 mm CLR
06:29 24.7 °C 21.0 °C 1008.3 hPa WSW 8.7 km/h 13.7 km/h 80% 0.0 mm CLR
06:34 24.7 °C 20.8 °C 1008.4 hPa SW 8.7 km/h 9.3 km/h 79% 0.0 mm CLR
06:39 24.8 °C 20.9 °C 1008.4 hPa SW 8.7 km/h 16.1 km/h 79% 0.0 mm CLR
06:44 24.7 °C 21.0 °C 1008.4 hPa SSW 8.7 km/h 11.1 km/h 80% 0.0 mm CLR
06:49 24.8 °C 21.1 °C 1008.5 hPa WSW 8.4 km/h 11.1 km/h 80% 0.0 mm CLR
06:54 24.8 °C 21.1 °C 1008.5 hPa SW 8.4 km/h 9.3 km/h 80% 0.0 mm CLR
06:59 24.8 °C 21.1 °C 1008.5 hPa WSW 6.9 km/h 9.3 km/h 80% 0.0 mm CLR
07:04 24.8 °C 21.1 °C 1008.6 hPa WSW 6.9 km/h 5.6 km/h 80% 0.0 mm CLR
07:09 24.7 °C 21.0 °C 1008.6 hPa West 4.7 km/h 7.6 km/h 80% 0.0 mm CLR
07:14 24.6 °C 20.9 °C 1008.6 hPa West 4.7 km/h 7.4 km/h 80% 0.0 mm CLR
07:19 24.5 °C 20.8 °C 1008.7 hPa West 4.7 km/h 7.6 km/h 80% 0.0 mm CLR
07:24 24.4 °C 20.7 °C 1008.7 hPa West 4.7 km/h 5.6 km/h 80% 0.0 mm CLR
07:29 24.4 °C 20.5 °C 1008.7 hPa WSW 4.7 km/h 7.4 km/h 79% 0.0 mm CLR
07:34 24.6 °C 20.3 °C 1008.7 hPa SW 4.7 km/h 9.3 km/h 77% 0.0 mm CLR
07:39 24.7 °C 20.2 °C 1008.7 hPa SW 5.0 km/h 11.1 km/h 76% 0.0 mm CLR
07:44 24.8 °C 19.8 °C 1008.7 hPa SSW 5.0 km/h 11.1 km/h 74% 0.0 mm CLR
07:49 24.9 °C 19.7 °C 1008.7 hPa WSW 5.8 km/h 7.4 km/h 73% 0.0 mm CLR
07:54 25.1 °C 19.7 °C 1008.7 hPa SW 5.8 km/h 7.4 km/h 72% 0.0 mm CLR
07:59 25.2 °C 19.6 °C 1008.7 hPa SW 4.7 km/h 7.4 km/h 71% 0.0 mm CLR
08:04 25.3 °C 19.4 °C 1008.8 hPa SW 4.7 km/h 5.6 km/h 70% 0.0 mm CLR
08:09 25.4 °C 19.1 °C 1008.8 hPa WSW 4.7 km/h 9.3 km/h 68% 0.0 mm CLR
08:14 25.6 °C 19.3 °C 1008.8 hPa SSW 4.7 km/h 11.1 km/h 68% 0.0 mm CLR
08:19 25.7 °C 19.3 °C 1008.9 hPa SSW 5.8 km/h 9.3 km/h 68% 0.0 mm CLR
08:24 25.7 °C 19.1 °C 1008.9 hPa SW 5.8 km/h 7.4 km/h 67% 0.0 mm CLR
08:29 25.8 °C 19.2 °C 1008.9 hPa SW 5.0 km/h 7.4 km/h 67% 0.0 mm CLR
08:34 25.8 °C 18.9 °C 1009.0 hPa South 5.0 km/h 7.4 km/h 66% 0.0 mm CLR
08:39 25.9 °C 18.8 °C 1009.0 hPa SSE 5.0 km/h 7.4 km/h 65% 0.0 mm CLR
08:44 26.1 °C 19.0 °C 1009.0 hPa South 5.0 km/h 11.1 km/h 65% 0.0 mm CLR
08:49 26.1 °C 18.8 °C 1009.1 hPa SSE 7.6 km/h 13.0 km/h 64% 0.0 mm CLR
08:54 26.1 °C 18.5 °C 1009.1 hPa SSE 7.6 km/h 13.0 km/h 63% 0.0 mm CLR
08:59 26.2 °C 18.6 °C 1009.1 hPa SSW 10.3 km/h 14.8 km/h 63% 0.0 mm CLR
09:04 26.3 °C 18.4 °C 1009.2 hPa SSE 10.3 km/h 11.1 km/h 62% 0.0 mm CLR
09:09 26.4 °C 18.0 °C 1009.2 hPa SSE 9.5 km/h 12.2 km/h 60% 0.0 mm CLR
09:14 26.6 °C 17.9 °C 1009.2 hPa SSW 9.5 km/h 11.1 km/h 59% 0.0 mm CLR
09:19 26.8 °C 17.8 °C 1009.2 hPa SSW 9.5 km/h 11.1 km/h 58% 0.0 mm CLR
09:24 27.1 °C 17.6 °C 1009.2 hPa South 9.5 km/h 13.7 km/h 56% 0.0 mm CLR
09:29 27.2 °C 17.4 °C 1009.2 hPa SSW 10.0 km/h 11.1 km/h 55% 0.0 mm CLR
09:34 27.5 °C 17.1 °C 1009.2 hPa WSW 10.0 km/h 13.0 km/h 53% 0.0 mm CLR
09:39 27.8 °C 16.7 °C 1009.2 hPa SSW 8.4 km/h 14.8 km/h 51% 0.0 mm CLR
09:44 28.1 °C 16.4 °C 1009.2 hPa WSW 8.4 km/h 9.3 km/h 49% 0.0 mm CLR
09:49 28.3 °C 16.6 °C 1009.1 hPa WSW 7.6 km/h 9.3 km/h 49% 0.0 mm CLR
09:54 28.5 °C 16.1 °C 1009.1 hPa SW 7.6 km/h 9.3 km/h 47% 0.0 mm CLR
09:59 28.6 °C 16.2 °C 1009.1 hPa WSW 7.6 km/h 9.3 km/h 47% 0.0 mm CLR
10:04 28.8 °C 16.0 °C 1009.1 hPa WSW 7.6 km/h 11.1 km/h 46% 0.0 mm CLR
10:09 29.1 °C 15.2 °C 1009.1 hPa WNW 6.9 km/h 16.7 km/h 43% 0.0 mm CLR
10:14 29.4 °C 14.8 °C 1009.1 hPa WNW 6.9 km/h 20.4 km/h 41% 0.0 mm CLR
10:19 29.8 °C 15.1 °C 1009.0 hPa WNW 10.0 km/h 18.0 km/h 41% 0.0 mm CLR
10:24 29.9 °C 14.4 °C 1009.0 hPa West 10.0 km/h 22.2 km/h 39% 0.0 mm CLR
10:29 30.1 °C 14.2 °C 1009.0 hPa West 12.2 km/h 22.2 km/h 38% 0.0 mm CLR
10:34 30.2 °C 14.3 °C 1009.0 hPa West 12.2 km/h 13.0 km/h 38% 0.0 mm CLR
10:39 30.3 °C 14.4 °C 1009.0 hPa West 11.9 km/h 20.4 km/h 38% 0.0 mm CLR
10:44 30.4 °C 13.7 °C 1009.0 hPa West 11.9 km/h 22.2 km/h 36% 0.0 mm CLR
10:49 30.5 °C 13.3 °C 1008.9 hPa WNW 14.8 km/h 33.3 km/h 35% 0.0 mm CLR
10:54 30.6 °C 13.4 °C 1008.9 hPa NNW 14.8 km/h 29.6 km/h 35% 0.0 mm CLR
10:59 30.8 °C 13.6 °C 1008.9 hPa SW 18.0 km/h 20.4 km/h 35% 0.0 mm CLR
11:03 30.9 °C 13.2 °C 1008.9 hPa WNW 18.0 km/h 39.9 km/h 34% 0.0 mm CLR
11:15 30.8 °C 13.6 °C 1008.9 hPa West 19.3 km/h 38.6 km/h 35% 0.0 mm CLR
11:20 31.1 °C 13.4 °C 1009.1 hPa WSW 19.0 km/h 25.9 km/h 34% 0.0 mm CLR
11:25 31.3 °C 13.6 °C 1009.1 hPa WNW 19.3 km/h 29.0 km/h 34% 0.0 mm CLR
11:30 31.2 °C 13.5 °C 1009.1 hPa West 15.6 km/h 29.6 km/h 34% 0.0 mm CLR
11:35 31.2 °C 13.5 °C 1009.1 hPa West 14.5 km/h 37.0 km/h 34% 0.0 mm CLR
11:40 31.2 °C 13.5 °C 1009.1 hPa West 19.3 km/h 32.2 km/h 34% 0.0 mm CLR
11:45 31.3 °C 13.6 °C 1009.1 hPa West 19.3 km/h 35.4 km/h 34% 0.0 mm CLR
11:50 31.2 °C 13.5 °C 1009.2 hPa West 20.9 km/h 38.6 km/h 34% 0.0 mm CLR
11:51 31.3 °C 13.6 °C 1009.2 hPa West 20.1 km/h 29.6 km/h 34% 0.0 mm CLR
12:45 32.1 °C 12.8 °C 1009.1 hPa WNW 20.9 km/h 29.0 km/h 31% 0.0 mm CLR
12:50 32.3 °C 12.5 °C 1008.9 hPa NW 20.9 km/h 40.2 km/h 30% 0.0 mm CLR
12:55 32.7 °C 12.8 °C 1008.9 hPa NW 20.9 km/h 25.7 km/h 30% 0.0 mm CLR
13:00 32.8 °C 12.4 °C 1008.9 hPa WNW 14.5 km/h 30.6 km/h 29% 0.0 mm CLR
13:05 32.7 °C 11.8 °C 1008.9 hPa WNW 14.5 km/h 32.2 km/h 28% 0.0 mm CLR
13:10 32.7 °C 12.3 °C 1008.9 hPa West 16.1 km/h 25.7 km/h 29% 0.0 mm CLR
13:15 32.8 °C 11.9 °C 1008.9 hPa West 16.1 km/h 29.0 km/h 28% 0.0 mm CLR
13:20 32.9 °C 12.0 °C 1008.8 hPa WNW 16.1 km/h 32.2 km/h 28% 0.0 mm CLR
13:25 33.2 °C 12.2 °C 1008.8 hPa WNW 16.1 km/h 22.5 km/h 28% 0.0 mm CLR
13:30 33.4 °C 11.3 °C 1008.8 hPa WNW 14.5 km/h 33.8 km/h 26% 0.0 mm CLR
13:35 33.2 °C 12.2 °C 1008.6 hPa West 15.6 km/h 25.9 km/h 28% 0.0 mm CLR
13:40 33.2 °C 12.2 °C 1008.6 hPa WNW 16.1 km/h 25.7 km/h 28% 0.0 mm CLR
13:45 33.4 °C 11.3 °C 1008.6 hPa WNW 16.1 km/h 32.2 km/h 26% 0.0 mm CLR
13:50 33.6 °C 11.4 °C 1008.5 hPa WNW 19.3 km/h 33.8 km/h 26% 0.0 mm CLR
13:55 33.8 °C 11.6 °C 1008.5 hPa NW 19.3 km/h 29.0 km/h 26% 0.0 mm CLR
14:00 33.9 °C 11.7 °C 1008.5 hPa NW 16.1 km/h 32.2 km/h 26% 0.0 mm CLR
14:05 34.1 °C 12.4 °C 1008.3 hPa NW 16.1 km/h 22.5 km/h 27% 0.0 mm CLR
14:10 34.2 °C 11.9 °C 1008.3 hPa WNW 14.5 km/h 29.0 km/h 26% 0.0 mm CLR
14:15 34.2 °C 11.3 °C 1008.3 hPa WNW 14.5 km/h 27.4 km/h 25% 0.0 mm CLR
14:20 34.3 °C 10.2 °C 1008.2 hPa WNW 16.1 km/h 30.6 km/h 23% 0.0 mm CLR
14:25 34.6 °C 11.1 °C 1008.2 hPa WNW 16.1 km/h 22.5 km/h 24% 0.0 mm CLR
14:30 34.6 °C 11.1 °C 1008.2 hPa NW 12.9 km/h 25.7 km/h 24% 0.0 mm CLR
14:35 34.6 °C 11.1 °C 1008.0 hPa NW 12.9 km/h 22.5 km/h 24% 0.0 mm CLR
14:40 34.7 °C 11.8 °C 1008.0 hPa WNW 11.3 km/h 20.9 km/h 25% 0.0 mm CLR
14:45 34.8 °C 11.2 °C 1008.0 hPa WNW 11.3 km/h 25.7 km/h 24% 0.0 mm CLR
14:50 34.9 °C 11.3 °C 1007.8 hPa WNW 12.9 km/h 19.3 km/h 24% 0.0 mm CLR
14:55 35.0 °C 11.4 °C 1007.8 hPa West 12.9 km/h 25.7 km/h 24% 0.0 mm CLR
15:00 35.2 °C 11.6 °C 1007.8 hPa WNW 12.9 km/h 22.5 km/h 24% 0.0 mm CLR
15:05 35.2 °C 11.6 °C 1007.6 hPa North 12.9 km/h 14.5 km/h 24% 0.0 mm CLR
15:10 35.3 °C 11.7 °C 1007.6 hPa NNW 9.7 km/h 27.4 km/h 24% 0.0 mm CLR
15:15 35.1 °C 11.5 °C 1007.6 hPa WNW 9.7 km/h 24.1 km/h 24% 0.0 mm CLR
15:20 35.1 °C 11.5 °C 1007.5 hPa West 12.9 km/h 27.4 km/h 24% 0.0 mm CLR
15:25 35.3 °C 11.7 °C 1007.5 hPa West 12.9 km/h 20.9 km/h 24% 0.0 mm CLR
15:30 35.4 °C 11.1 °C 1007.5 hPa NW 11.3 km/h 24.1 km/h 23% 0.0 mm CLR
15:34 35.4 °C 11.8 °C 1007.3 hPa NNE 10.3 km/h 11.1 km/h 24% 0.0 mm CLR
15:40 35.7 °C 11.9 °C 1007.3 hPa NW 9.7 km/h 25.7 km/h 24% 0.0 mm CLR
15:45 35.8 °C 12.1 °C 1007.3 hPa WNW 9.7 km/h 29.0 km/h 24% 0.0 mm CLR
15:50 35.8 °C 11.4 °C 1007.2 hPa WNW 11.3 km/h 14.5 km/h 23% 0.0 mm CLR
15:55 35.9 °C 12.2 °C 1007.2 hPa WSW 11.3 km/h 11.3 km/h 24% 0.0 mm CLR
16:00 36.3 °C 11.8 °C 1007.2 hPa WSW 8.0 km/h 24.1 km/h 23% 0.0 mm CLR
16:05 36.0 °C 12.3 °C 1007.0 hPa NW 8.0 km/h 24.1 km/h 24% 0.0 mm CLR
16:10 35.9 °C 12.2 °C 1007.0 hPa North 12.9 km/h 22.5 km/h 24% 0.0 mm CLR
16:15 35.9 °C 12.2 °C 1007.0 hPa NW 12.9 km/h 20.9 km/h 24% 0.0 mm CLR
16:19 35.9 °C 12.2 °C 1007.1 hPa WSW 11.1 km/h 18.5 km/h 24% 0.0 mm CLR
16:25 35.9 °C 12.2 °C 1007.1 hPa West 11.3 km/h 27.4 km/h 24% 0.0 mm CLR
16:30 35.9 °C 12.2 °C 1007.1 hPa WNW 14.5 km/h 24.1 km/h 24% 0.0 mm CLR
16:35 36.1 °C 12.3 °C 1007.0 hPa WNW 14.5 km/h 22.5 km/h 24% 0.0 mm CLR
16:40 36.3 °C 11.8 °C 1007.0 hPa NW 12.9 km/h 20.9 km/h 23% 0.0 mm CLR
16:45 36.4 °C 11.9 °C 1007.0 hPa NW 12.9 km/h 19.3 km/h 23% 0.0 mm CLR
16:50 36.4 °C 11.9 °C 1007.0 hPa WNW 11.3 km/h 22.5 km/h 23% 0.0 mm CLR
16:55 36.2 °C 11.8 °C 1007.0 hPa WNW 11.3 km/h 24.1 km/h 23% 0.0 mm CLR
17:00 36.4 °C 11.9 °C 1007.0 hPa NW 8.0 km/h 11.3 km/h 23% 0.0 mm CLR
17:04 36.4 °C 12.6 °C 1006.8 hPa NE 8.4 km/h 11.1 km/h 24% 0.0 mm CLR
17:10 36.6 °C 12.1 °C 1006.8 hPa NNW 9.7 km/h 27.4 km/h 23% 0.0 mm CLR
17:15 36.4 °C 12.6 °C 1006.8 hPa NW 9.7 km/h 19.3 km/h 24% 0.0 mm CLR
17:20 36.6 °C 12.1 °C 1006.5 hPa NW 9.7 km/h 17.7 km/h 23% 0.0 mm CLR
17:25 36.7 °C 12.2 °C 1006.5 hPa NNW 9.7 km/h 20.9 km/h 23% 0.0 mm CLR
17:30 36.8 °C 12.3 °C 1006.5 hPa NW 9.7 km/h 20.9 km/h 23% 0.0 mm CLR
17:34 36.9 °C 11.7 °C 1006.5 hPa WSW 10.0 km/h 20.4 km/h 22% 0.0 mm CLR
17:40 36.8 °C 12.3 °C 1006.5 hPa WNW 11.3 km/h 20.9 km/h 23% 0.0 mm CLR
17:45 36.9 °C 11.7 °C 1006.5 hPa WNW 11.3 km/h 22.5 km/h 22% 0.0 mm CLR
17:50 37.1 °C 11.8 °C 1006.3 hPa WNW 9.7 km/h 16.1 km/h 22% 0.0 mm CLR
17:55 37.1 °C 14.4 °C 1006.3 hPa NW 9.7 km/h 27.4 km/h 26% 0.0 mm CLR
18:00 36.4 °C 14.4 °C 1006.3 hPa NNE 12.9 km/h 27.4 km/h 27% 0.0 mm CLR
18:05 36.1 °C 14.7 °C 1006.5 hPa NE 12.9 km/h 29.0 km/h 28% 0.0 mm CLR
18:09 35.8 °C 15.0 °C 1006.5 hPa NE 18.3 km/h 25.9 km/h 29% 0.0 mm CLR
18:15 35.8 °C 15.0 °C 1006.5 hPa NE 19.3 km/h 27.4 km/h 29% 0.0 mm CLR
18:20 35.6 °C 14.8 °C 1006.4 hPa ENE 16.4 km/h 24.1 km/h 29% 0.0 mm CLR
18:24 35.7 °C 14.4 °C 1006.4 hPa East 16.4 km/h 21.7 km/h 28% 0.0 mm CLR
18:30 35.6 °C 14.3 °C 1006.4 hPa ENE 14.5 km/h 24.1 km/h 28% 0.0 mm CLR
18:34 35.3 °C 14.0 °C 1006.5 hPa East 14.0 km/h 25.9 km/h 28% 0.0 mm CLR
18:40 35.2 °C 13.9 °C 1006.5 hPa North 14.0 km/h 13.0 km/h 28% 0.0 mm CLR
18:45 35.3 °C 14.0 °C 1006.5 hPa ESE 14.5 km/h 33.8 km/h 28% 0.0 mm CLR
18:50 35.0 °C 13.8 °C 1006.4 hPa ESE 19.3 km/h 37.0 km/h 28% 0.0 mm CLR
18:55 35.2 °C 13.9 °C 1006.4 hPa SE 19.3 km/h 25.7 km/h 28% 0.0 mm CLR
19:00 35.1 °C 13.8 °C 1006.4 hPa SE 19.3 km/h 30.6 km/h 28% 0.0 mm CLR
19:05 35.1 °C 13.8 °C 1006.6 hPa SE 19.3 km/h 27.4 km/h 28% 0.0 mm CLR
19:10 35.1 °C 13.8 °C 1006.6 hPa SE 16.1 km/h 27.4 km/h 28% 0.0 mm CLR
19:15 35.0 °C 13.8 °C 1006.6 hPa SE 16.1 km/h 33.8 km/h 28% 0.0 mm CLR
19:19 34.9 °C 13.7 °C 1006.8 hPa East 16.4 km/h 24.1 km/h 28% 0.0 mm CLR
19:25 34.9 °C 13.7 °C 1006.8 hPa SE 16.1 km/h 20.9 km/h 28% 0.0 mm CLR
19:30 34.9 °C 13.7 °C 1006.8 hPa SE 12.9 km/h 24.1 km/h 28% 0.0 mm CLR
19:35 34.8 °C 13.6 °C 1006.9 hPa SE 12.9 km/h 24.1 km/h 28% 0.0 mm CLR
19:39 34.6 °C 13.9 °C 1006.9 hPa SSE 14.0 km/h 14.0 km/h 29% 0.0 mm CLR
19:45 34.6 °C 13.4 °C 1006.9 hPa SE 14.5 km/h 25.7 km/h 28% 0.0 mm CLR
19:49 34.4 °C 13.3 °C 1007.2 hPa SE 11.9 km/h 15.6 km/h 28% 0.0 mm CLR
19:55 34.4 °C 13.2 °C 1007.2 hPa SE 11.3 km/h 19.3 km/h 28% 0.0 mm CLR
19:59 34.2 °C 13.1 °C 1007.2 hPa SE 11.9 km/h 22.2 km/h 28% 0.0 mm CLR
20:05 34.1 °C 13.6 °C 1007.4 hPa ESE 11.3 km/h 22.5 km/h 29% 0.0 mm CLR
20:10 33.9 °C 13.4 °C 1007.4 hPa ESE 12.9 km/h 24.1 km/h 29% 0.0 mm CLR
20:15 33.8 °C 13.3 °C 1007.4 hPa ESE 12.9 km/h 20.9 km/h 29% 0.0 mm CLR
20:20 33.7 °C 13.7 °C 1007.6 hPa East 11.9 km/h 16.7 km/h 30% 0.0 mm CLR
20:24 33.4 °C 13.4 °C 1007.6 hPa NNE 11.9 km/h 13.0 km/h 30% 0.0 mm CLR
20:30 33.3 °C 13.4 °C 1007.6 hPa ENE 9.7 km/h 12.9 km/h 30% 0.0 mm CLR
20:34 33.0 °C 16.4 °C 1007.9 hPa NE 9.5 km/h 23.3 km/h 37% 0.0 mm CLR
20:40 31.9 °C 17.8 °C 1007.9 hPa NE 12.9 km/h 25.7 km/h 43% 0.0 mm CLR
20:45 31.1 °C 18.1 °C 1007.9 hPa NE 12.9 km/h 27.4 km/h 46% 0.0 mm CLR
20:50 30.7 °C 18.1 °C 1008.1 hPa NE 16.1 km/h 20.9 km/h 47% 0.0 mm CLR
20:55 30.1 °C 18.8 °C 1008.1 hPa NNE 16.1 km/h 27.8 km/h 51% 0.0 mm CLR
20:59 29.6 °C 19.0 °C 1008.1 hPa NE 18.3 km/h 31.5 km/h 53% 0.0 mm CLR
21:05 29.2 °C 18.9 °C 1008.2 hPa NE 19.3 km/h 32.2 km/h 54% 0.0 mm CLR
21:10 28.9 °C 19.3 °C 1008.2 hPa NE 22.5 km/h 27.4 km/h 56% 0.0 mm CLR
21:15 28.7 °C 19.6 °C 1008.2 hPa NNE 22.5 km/h 30.6 km/h 58% 0.0 mm CLR
21:20 28.4 °C 19.6 °C 1008.4 hPa NE 19.0 km/h 27.8 km/h 59% 0.0 mm CLR
21:25 28.2 °C 19.7 °C 1008.4 hPa NE 19.0 km/h 20.4 km/h 60% 0.0 mm CLR
21:30 28.1 °C 19.9 °C 1008.4 hPa NE 16.1 km/h 30.6 km/h 61% 0.0 mm CLR
21:35 27.8 °C 19.8 °C 1008.7 hPa NE 16.1 km/h 29.0 km/h 62% 0.0 mm CLR
21:39 27.7 °C 20.0 °C 1008.7 hPa NE 18.0 km/h 24.1 km/h 63% 0.0 mm CLR
21:44 27.5 °C 20.1 °C 1008.7 hPa North 18.0 km/h 25.9 km/h 64% 0.0 mm CLR
21:50 27.3 °C 20.2 °C 1008.9 hPa NE 19.3 km/h 29.0 km/h 65% 0.0 mm CLR
21:54 27.2 °C 20.3 °C 1008.9 hPa NNE 19.0 km/h 29.6 km/h 66% 0.0 mm CLR
21:59 27.1 °C 20.4 °C 1008.9 hPa NE 16.4 km/h 24.1 km/h 67% 0.0 mm CLR
22:04 27.1 °C 20.4 °C 1009.1 hPa North 16.4 km/h 18.5 km/h 67% 0.0 mm CLR
22:09 26.9 °C 20.5 °C 1009.1 hPa NE 18.0 km/h 29.6 km/h 68% 0.0 mm CLR
22:15 26.8 °C 20.6 °C 1009.1 hPa NE 19.3 km/h 41.8 km/h 69% 0.0 mm CLR
22:19 26.6 °C 20.9 °C 1009.3 hPa NNE 21.7 km/h 27.8 km/h 71% 0.0 mm CLR
22:25 26.6 °C 20.9 °C 1009.3 hPa NE 22.5 km/h 25.7 km/h 71% 0.0 mm CLR
22:30 26.5 °C 20.8 °C 1009.3 hPa NE 15.6 km/h 22.2 km/h 71% 0.0 mm CLR
22:35 26.4 °C 20.7 °C 1009.5 hPa NE 14.5 km/h 25.7 km/h 71% 0.0 mm CLR
22:40 26.4 °C 20.9 °C 1009.5 hPa NE 16.1 km/h 30.6 km/h 72% 0.0 mm CLR
22:45 26.3 °C 20.8 °C 1009.5 hPa NE 16.1 km/h 27.4 km/h 72% 0.0 mm CLR
22:50 26.2 °C 21.0 °C 1009.7 hPa NE 19.3 km/h 33.8 km/h 73% 0.0 mm CLR
22:55 26.1 °C 21.3 °C 1009.7 hPa NE 19.3 km/h 33.8 km/h 75% 0.0 mm CLR
22:59 25.9 °C 21.3 °C 1009.7 hPa NE 20.1 km/h 25.9 km/h 76% 0.0 mm CLR
23:05 25.9 °C 21.3 °C 1009.8 hPa NE 20.9 km/h 29.0 km/h 76% 0.0 mm CLR
23:10 25.8 °C 21.3 °C 1009.8 hPa NE 16.1 km/h 29.0 km/h 76% 0.0 mm CLR
23:14 25.8 °C 21.2 °C 1009.8 hPa NE 17.2 km/h 25.9 km/h 76% 0.0 mm CLR
23:19 25.8 °C 21.2 °C 1009.9 hPa NE 15.6 km/h 24.1 km/h 76% 0.0 mm CLR
23:25 25.8 °C 21.3 °C 1009.9 hPa NE 14.5 km/h 24.1 km/h 76% 0.0 mm CLR
23:30 25.8 °C 21.1 °C 1009.9 hPa NE 14.5 km/h 25.7 km/h 75% 0.0 mm CLR
23:34 25.9 °C 21.1 °C 1010.1 hPa NE 15.6 km/h 19.0 km/h 75% 0.0 mm CLR
23:40 25.9 °C 21.1 °C 1010.1 hPa NE 11.3 km/h 20.9 km/h 75% 0.0 mm CLR
23:45 25.8 °C 21.1 °C 1010.1 hPa NE 11.3 km/h 24.1 km/h 75% 0.0 mm CLR
23:49 25.8 °C 21.1 °C 1010.1 hPa NE 13.0 km/h 16.7 km/h 75% 0.0 mm CLR
23:55 25.7 °C 21.2 °C 1010.1 hPa NE 12.9 km/h 24.1 km/h 76% 0.0 mm CLR
Murcia-Puente Tocinos, España
Compliments of Weather Underground - 2.75 mb

La estación de MeteoMurcia.com, publica sus datos en los siguientes proyectos:

Weather Underground PWS IMURCIAP2 Meteoclimatic www.awekas.at

W3Counter
Web Analytics